Location: Altleiningen
(49.5078°N, 8.0741°E)
Time: 00:11:43
(UTC+00:00)

Cosmos 2369 Rocket - Pass Details

Date: 03 March 2021
Orbit: 829 x 852 km, 71.0° (Epoch: 12 April)

Event Time Altitude Azimuth Distance (km) Brightness Sun altitude
Rises 21:28:32 0° 333° (NNW) 3,384 6.2 -38.9°
Reaches altitude 10° 21:31:03 10° 339° (NNW) 2,448 5.2 -39.2°
Enters shadow 21:32:57 21° 348° (NNW) 1,791 4.3 -39.4°
